FW4300 Weather Reports


Display with metric or nautical units.
time (UTC)temp
F
wind
direction
speed
MPH
gust
MPH
rain 1hr
in
rain 24hr
in
rain mn
in
humidity
%
barometer
mb
20260505235036 79 145 0.0 0.0 0.00 0.00 0.00 66 1018.4
20260505234545 79 131 0.0 0.0 0.00 0.00 0.00 66 1018.4
20260505234037 80 131 0.0 0.0 0.00 0.00 0.00 66 1018.3
20260505233534 80 123 0.0 0.0 0.00 0.00 0.00 65 1018.2
20260505233035 80 117 0.0 0.0 0.00 0.00 0.00 65 1018.3
20260505232534 80 126 0.0 0.0 0.00 0.00 0.00 65 1018.2
20260505232035 80 115 0.0 0.0 0.00 0.00 0.00 65 1018.2
20260505231539 80 122 0.0 0.0 0.00 0.00 0.00 65 1018.2
20260505231035 80 108 0.0 0.0 0.00 0.00 0.00 65 1018.2
20260505230533 80 109 0.0 0.0 0.00 0.00 0.00 65 1018.1
20260505230037 80 131 0.0 0.0 0.00 0.00 0.00 65 1018.1
20260505225537 80 105 0.0 0.0 0.00 0.00 0.00 65 1018.1
20260505225032 80 114 0.0 0.0 0.00 0.00 0.00 64 1018.1
20260505224538 80 103 0.0 0.0 0.00 0.00 0.00 64 1018.0
20260505224033 81 129 0.0 0.0 0.00 0.00 0.00 64 1017.8
20260505223533 81 127 0.0 0.0 0.00 0.00 0.00 64 1017.9
20260505223040 81 135 0.0 0.0 0.00 0.00 0.00 63 1017.8
20260505222531 81 131 0.0 0.0 0.00 0.00 0.00 63 1017.7
20260505222031 82 131 0.0 0.0 0.00 0.00 0.00 63 1017.6
20260505221530 82 131 0.0 0.0 0.00 0.00 0.00 62 1017.6
20260505221029 82 142 0.0 0.0 0.00 0.00 0.00 62 1017.4
20260505220530 82 126 0.0 0.0 0.00 0.00 0.00 62 1017.4
20260505220037 82 104 0.0 0.0 0.00 0.00 0.00 62 1017.3
20260505215528 83 139 0.0 0.0 0.00 0.00 0.00 61 1017.3
20260505215029 83 154 0.0 0.0 0.00 0.00 0.00 60 1017.2
20260505214548 83 143 0.0 0.0 0.00 0.00 0.00 59 1017.2
20260505214031 84 179 0.0 0.0 0.00 0.00 0.00 60 1017.2
20260505213530 84 179 0.0 0.0 0.00 0.00 0.00 60 1017.2
20260505213045 84 171 0.0 0.0 0.00 0.00 0.00 59 1017.1
20260505212526 83 134 0.0 0.0 0.00 0.00 0.00 59 1017.1
20260505212026 84 143 0.0 0.0 0.00 0.00 0.00 60 1017.1
20260505211525 84 142 0.0 0.0 0.00 0.00 0.00 60 1017.2
20260505211026 83 124 0.0 0.0 0.00 0.00 0.00 61 1017.2
20260505210523 83 197 0.0 0.0 0.00 0.00 0.00 60 1017.2
20260505210028 83 170 0.0 0.0 0.00 0.00 0.00 61 1017.1
20260505205524 83 129 0.0 0.0 0.00 0.17 0.00 61 1017.1
20260505205026 84 194 0.0 0.0 0.00 0.17 0.00 60 1017.2
20260505204529 84 206 0.0 0.0 0.00 0.17 0.00 59 1017.1
20260505204021 84 126 0.0 0.0 0.00 0.17 0.00 59 1017.2
20260505203521 85 141 0.0 0.0 0.00 0.17 0.00 58 1017.0
20260505203023 85 108 0.0 0.0 0.00 0.17 0.00 59 1017.0
20260505202521 85 189 0.0 0.0 0.00 0.17 0.00 58 1017.0
20260505202021 85 160 0.0 0.0 0.00 0.17 0.00 57 1017.2
20260505201538 86 142 0.0 0.0 0.00 0.17 0.00 56 1017.1
20260505201020 86 172 0.0 0.0 0.00 0.17 0.00 56 1017.1
20260505200520 86 219 0.0 0.0 0.00 0.17 0.00 56 1017.2
20260505200027 85 204 0.0 0.0 0.00 0.17 0.00 57 1017.2
20260505195519 86 125 0.0 0.0 0.00 0.17 0.00 56 1017.2
20260505195120 87 196 0.0 0.0 0.00 0.17 0.00 56 1017.3
20260505194519 86 187 0.0 0.0 0.00 0.17 0.00 56 1017.3
20260505194020 86 173 0.0 0.0 0.00 0.17 0.00 56 1017.3
20260505193519 86 222 0.0 0.0 0.00 0.17 0.00 55 1017.3
20260505193037 86 195 0.0 0.0 0.00 0.17 0.00 55 1017.3
20260505192518 87 141 0.0 0.0 0.00 0.17 0.00 54 1017.4
20260505192016 87 244 0.0 0.0 0.00 0.17 0.00 56 1017.4
20260505191517 86 112 0.0 0.0 0.00 0.17 0.00 57 1017.3
20260505191018 86 115 0.0 0.0 0.00 0.17 0.00 57 1017.4
20260505190517 86 123 0.0 0.0 0.00 0.17 0.00 56 1017.4
20260505190028 86 146 0.0 0.0 0.00 0.17 0.00 55 1017.4
20260505185520 86 112 0.0 0.0 0.00 0.17 0.00 59 1017.4
20260505185013 86 188 0.0 0.0 0.00 0.17 0.00 59 1017.5
20260505184515 86 257 0.0 0.0 0.00 0.17 0.00 61 1017.6
20260505184011 86 128 0.0 0.0 0.00 0.17 0.00 64 1017.7
20260505183510 86 138 0.0 0.0 0.00 0.17 0.00 64 1017.7
20260505183016 86 121 0.0 0.0 0.00 0.17 0.00 68 1017.7
20260505182509 86 91 0.0 0.0 0.00 0.17 0.00 68 1017.8
20260505182008 86 179 0.0 0.0 0.00 0.17 0.00 68 1018.0
20260505181510 86 137 0.0 0.0 0.00 0.17 0.00 67 1017.9
20260505181011 86 168 0.0 0.0 0.00 0.17 0.00 68 1018.0
20260505180505 86 194 0.0 0.0 0.00 0.17 0.00 69 1018.1
20260505180005 85 178 0.0 0.0 0.00 0.17 0.00 69 1018.2
20260505175504 85 226 0.0 0.0 0.00 0.17 0.00 69 1018.3
20260505175004 85 145 0.0 0.0 0.00 0.17 0.00 70 1018.3
20260505174505 85 130 0.0 0.0 0.00 0.17 0.00 70 1018.3
20260505174004 85 165 0.0 0.0 0.00 0.17 0.00 70 1018.5
20260505173503 85 199 0.0 0.0 0.00 0.17 0.00 69 1018.4
20260505173005 86 162 0.0 0.0 0.00 0.17 0.00 70 1018.4
20260505172503 86 176 0.0 0.0 0.00 0.17 0.00 70 1018.5
20260505172102 86 122 0.0 0.0 0.00 0.17 0.00 70 1018.4
20260505171501 86 154 0.0 0.0 0.00 0.17 0.00 70 1018.5
20260505171001 86 167 0.0 0.0 0.00 0.17 0.00 70 1018.5
20260505170605 86 162 0.0 0.0 0.00 0.17 0.00 70 1018.7
20260505170114 86 96 0.0 0.0 0.00 0.17 0.00 69 1018.6
20260505165558 86 209 0.0 0.0 0.00 0.17 0.00 70 1018.6
20260505165100 86 150 0.0 0.0 0.00 0.17 0.00 70 1018.6
20260505164556 86 217 0.0 0.0 0.00 0.17 0.00 70 1018.7
20260505164057 85 164 0.0 0.0 0.00 0.17 0.00 70 1018.7
20260505163558 85 150 0.0 0.0 0.00 0.17 0.00 69 1018.7
20260505163059 85 141 0.0 0.0 0.00 0.17 0.00 70 1018.8
20260505162553 85 143 0.0 0.0 0.00 0.17 0.00 70 1018.8
20260505162053 85 174 0.0 0.0 0.00 0.17 0.00 70 1018.7
20260505161654 85 203 0.0 0.0 0.00 0.17 0.00 70 1018.7
20260505161051 84 146 0.0 0.0 0.00 0.17 0.00 71 1018.7
20260505160552 84 195 0.0 0.0 0.00 0.17 0.00 72 1018.8
20260505153059 84 152 0.0 0.0 0.00 0.17 0.00 71 1018.8
20260505152545 84 192 0.0 0.0 0.00 0.17 0.00 72 1018.8
20260505152046 84 131 0.0 0.0 0.00 0.17 0.00 72 1018.8
20260505151544 84 142 0.0 0.0 0.00 0.17 0.00 72 1018.8
20260505151042 84 126 0.0 0.0 0.00 0.17 0.00 72 1018.7
20260505150544 84 221 0.0 0.0 0.00 0.17 0.00 73 1018.8
20260505140531 83 156 0.0 0.0 0.00 0.17 0.00 73 1018.8
20260505125014 82 107 0.0 0.0 0.00 0.17 0.00 76 1018.5
20260505124515 81 158 0.0 0.0 0.00 0.17 0.00 76 1018.6
20260505124016 81 146 0.0 0.0 0.00 0.17 0.00 76 1018.4
20260505123514 81 185 0.0 0.0 0.00 0.17 0.00 76 1018.5
20260505123010 81 89 0.0 0.0 0.00 0.17 0.00 76 1018.4
20260505122508 81 106 0.0 0.0 0.00 0.17 0.00 77 1018.3
20260505122006 80 115 0.0 0.0 0.00 0.17 0.00 78 1018.3
20260505121510 79 127 0.0 0.0 0.00 0.17 0.00 78 1018.2
20260505121005 79 151 0.0 0.0 0.00 0.17 0.00 78 1018.3
20260505120508 79 115 0.0 0.0 0.00 0.17 0.00 78 1018.2
20260505120004 79 128 0.0 0.0 0.00 0.17 0.00 78 1018.2
20260505115502 79 131 0.0 0.0 0.00 0.17 0.00 78 1018.1
20260505115003 79 156 0.0 0.0 0.00 0.17 0.00 78 1018.1
20260505114502 79 112 0.0 0.0 0.00 0.17 0.00 77 1018.1
20260505114002 80 120 0.0 0.0 0.00 0.17 0.00 77 1018.0
20260505113602 80 138 0.0 0.0 0.00 0.17 0.00 77 1018.0
20260505113201 79 113 0.0 0.0 0.00 0.17 0.00 77 1018.0
20260505112556 79 115 0.0 0.0 0.00 0.17 0.00 78 1017.8
20260505112055 79 172 0.0 0.0 0.00 0.17 0.00 79 1017.8
20260505111559 78 139 0.0 0.0 0.00 0.17 0.00 81 1017.8
20260505111052 77 107 0.0 0.0 0.00 0.17 0.00 82 1017.7
20260505110551 76 129 0.0 0.0 0.00 0.17 0.00 82 1017.6
20260505102038 0 0.0 0.0 0.00 0.17 0.00 1017.3
20260505101543 0 0.0 0.0 0.00 0.17 0.00 1017.2
20260505101035 0 0.0 0.0 0.00 0.17 0.00 1017.2
20260505100535 0 0.0 0.0 0.00 0.17 0.00 1017.2
20260505100033 0 0.0 0.0 0.00 0.17 0.00 1017.1
20260505095531 0 0.0 0.0 0.00 0.17 0.00 1017.2
20260505095030 0 0.0 0.0 0.00 0.17 0.00 1017.1
20260505094529 0 0.0 0.0 0.00 0.17 0.00 1017.0
20260505094025 0 0.0 0.0 0.00 0.17 0.00 1017.0
20260505093523 0 0.0 0.0 0.00 0.17 0.00 1017.0
20260505093021 0 0.0 0.0 0.00 0.17 0.00 1017.0
20260505092520 0 0.0 0.0 0.00 0.17 0.00 1017.0
20260505092019 0 0.0 0.0 0.00 0.17 0.00 1017.0
20260505091527 0 0.0 0.0 0.00 0.17 0.00 1017.0
20260505091014 0 0.0 0.0 0.00 0.17 0.00 1017.0
20260505090512 0 0.0 0.0 0.00 0.17 0.00 1016.9
20260505090012 0 0.0 0.0 0.00 0.17 0.00 1016.8
20260505085510 0 0.0 0.0 0.00 0.17 0.00 1016.7
20260505085009 0 0.0 0.0 0.00 0.17 0.00 1016.7
20260505084512 0 0.0 0.0 0.00 0.17 0.00 1016.7
20260505084007 0 0.0 0.0 0.00 0.17 0.00 1016.7
20260505083502 0 212 0.0 0.0 0.00 0.17 0.00 1016.5
20260505083004 0 212 0.0 0.0 0.00 0.17 0.00 1016.5
20260505082600 0 212 0.0 0.0 0.00 0.17 0.00 81 1016.5
20260505082100 74 212 0.0 0.0 0.00 0.17 0.00 81 1016.5
20260505081602 74 212 0.0 0.0 0.00 0.17 0.00 81 1016.5
20260505081059 74 212 0.0 0.0 0.00 0.17 0.00 81 1016.5
20260505080557 74 212 0.0 0.0 0.00 0.17 0.00 81 1016.4
20260505080057 74 212 0.0 0.0 0.00 0.17 0.00 81 1016.3
20260505075556 74 212 0.0 0.0 0.00 0.17 0.00 81 1016.4
20260505075055 74 212 0.0 0.0 0.00 0.17 0.00 81 1016.3
20260505074555 75 212 0.0 0.0 0.00 0.17 0.00 81 1016.3
20260505074054 75 212 0.0 0.0 0.00 0.17 0.00 81 1016.3
20260505073553 75 212 0.0 0.0 0.00 0.17 0.00 80 1016.3
20260505073058 75 212 0.0 0.0 0.00 0.17 0.00 80 1016.4
20260505072552 75 212 0.0 0.0 0.00 0.17 0.00 80 1016.4
20260505072052 75 212 0.0 0.0 0.00 0.17 0.00 80 1016.4
20260505071551 75 212 0.0 0.0 0.00 0.17 0.00 79 1016.4
20260505071050 75 178 0.0 0.0 0.00 0.17 0.00 79 1016.3
20260505070551 75 162 0.0 0.0 0.00 0.17 0.00 78 1016.3
20260505070149 75 162 0.0 0.0 0.00 0.17 0.00 78 1016.3
20260505065548 75 162 0.0 0.0 0.00 0.17 0.00 78 1016.3
20260505065047 75 168 0.0 0.0 0.00 0.17 0.00 78 1016.3
20260505064545 75 168 0.0 0.0 0.00 0.17 0.00 78 1016.4
20260505064047 75 131 0.0 0.0 0.00 0.17 0.00 77 1016.4
20260505063544 76 136 0.0 0.0 0.00 0.17 0.00 77 1016.5
20260505063043 76 117 0.0 0.0 0.00 0.17 0.00 77 1016.5
20260505062543 76 162 0.0 0.0 0.00 0.17 0.00 77 1016.5
20260505062043 76 162 0.0 0.0 0.00 0.17 0.00 76 1016.6
20260505061542 76 161 0.0 0.0 0.00 0.17 0.00 76 1016.5
20260505061041 76 161 0.0 0.0 0.00 0.17 0.00 76 1016.7
20260505060539 76 169 0.0 0.0 0.00 0.17 0.00 75 1016.7
20260505060039 76 169 0.0 0.0 0.00 0.17 0.00 75 1016.8
20260505055539 76 164 0.0 0.0 0.00 0.17 0.00 75 1016.9
20260505055040 76 162 0.0 0.0 0.00 0.17 0.00 75 1017.0
20260505054537 76 167 0.0 0.0 0.00 0.17 0.00 75 1017.0
20260505054036 76 129 0.0 0.0 0.00 0.17 0.00 75 1017.0
20260505053541 76 143 0.0 0.0 0.00 0.17 0.00 75 1017.1
20260505053035 76 149 0.0 0.0 0.00 0.17 0.00 75 1017.2
20260505052535 76 172 0.0 0.0 0.00 0.17 0.00 75 1017.3
20260505052034 76 143 0.0 0.0 0.00 0.17 0.00 75 1017.3
20260505051537 76 153 0.0 0.0 0.00 0.17 0.00 75 1017.3
20260505051034 76 168 0.0 0.0 0.00 0.17 0.00 75 1017.4
20260505050535 76 136 0.0 0.0 0.00 0.17 0.00 75 1017.5
20260505050104 76 170 0.0 0.0 0.00 0.17 0.00 75 1017.5
20260505041542 77 120 0.0 0.0 0.00 0.17 0.00 75 1017.8
20260505041024 77 150 0.0 0.0 0.00 0.17 0.00 75 1018.0
20260505040525 77 155 0.0 0.0 0.00 0.17 0.00 75 1018.0
20260505040021 77 159 0.0 0.0 0.00 0.17 0.00 75 1018.0
20260505035520 77 136 0.0 0.0 0.00 0.17 0.00 75 1018.1
20260505035020 77 176 0.0 0.0 0.00 0.17 0.00 75 1018.0
20260505034520 77 172 0.0 0.0 0.00 0.17 0.00 75 1018.1
20260505034022 77 137 0.0 0.0 0.00 0.17 0.00 75 1018.1
20260505033520 77 179 0.0 0.0 0.00 0.17 0.00 75 1018.2
20260505033020 77 203 0.0 0.0 0.00 0.17 0.00 75 1018.2
20260505032523 77 202 0.0 0.0 0.00 0.17 0.00 75 1018.3
20260505032020 77 203 0.0 0.0 0.00 0.17 0.00 75 1018.1
20260505031519 77 203 0.0 0.0 0.00 0.17 0.00 75 1018.1
20260505031019 77 174 0.0 0.0 0.00 0.17 0.00 74 1018.1
20260505030518 76 175 0.0 0.0 0.00 0.17 0.00 74 1018.2
20260505030020 76 190 0.0 0.0 0.00 0.17 0.00 74 1018.2
20260505025518 77 198 0.0 0.0 0.00 0.17 0.00 74 1018.1
20260505025018 77 198 0.0 0.0 0.00 0.17 0.00 74 1018.1
20260505024521 77 170 0.0 0.0 0.00 0.17 0.00 74 1018.1
20260505024017 77 129 0.0 0.0 0.00 0.17 0.00 73 1018.1
20260505023517 77 127 0.0 0.0 0.00 0.17 0.00 73 1018.1
20260505023017 77 121 0.0 0.0 0.00 0.17 0.00 73 1018.1
20260505022517 77 134 0.0 0.0 0.00 0.17 0.00 73 1018.1
20260505022017 77 136 0.0 0.0 0.00 0.17 0.00 72 1018.2
20260505021518 77 148 0.0 0.0 0.00 0.17 0.00 72 1018.2
20260505021016 77 143 0.0 0.0 0.00 0.17 0.00 72 1018.1
20260505020515 77 147 0.0 0.0 0.00 0.17 0.00 72 1018.2
20260505020018 77 167 0.0 0.0 0.00 0.17 0.00 72 1018.1
20260505015517 77 171 0.0 0.0 0.00 0.17 0.00 71 1018.1
20260505015017 77 149 0.0 0.0 0.00 0.17 0.00 71 1018.1
20260505014516 77 149 0.0 0.0 0.00 0.17 0.00 70 1018.0
20260505014015 77 171 0.0 0.0 0.00 0.17 0.00 70 1017.8
20260505013514 77 169 0.0 0.0 0.00 0.17 0.00 70 1017.9
20260505013019 77 135 0.0 0.0 0.00 0.17 0.00 70 1017.8
20260505012515 77 131 0.0 0.0 0.00 0.17 0.00 70 1017.6
20260505012014 77 130 0.0 0.0 0.00 0.17 0.00 69 1017.6
20260505011521 77 162 0.0 0.0 0.00 0.17 0.00 69 1017.5
20260505011016 77 142 0.0 0.0 0.00 0.17 0.00 69 1017.4
20260505010512 77 156 0.0 0.0 0.00 0.17 0.00 69 1017.4
20260505010013 77 172 0.0 0.0 0.00 0.17 0.00 69 1017.3
20260505005513 77 154 0.0 0.0 0.00 0.17 0.00 69 1017.3
20260505005014 77 176 0.0 0.0 0.00 0.17 0.00 69 1017.3
20260505004529 77 162 0.0 0.0 0.00 0.17 0.00 69 1017.3
20260505004012 78 183 0.0 0.0 0.00 0.17 0.00 69 1017.4
20260505003512 78 106 0.0 0.0 0.00 0.17 0.00 68 1017.4
20260505003012 78 136 0.0 0.0 0.00 0.17 0.00 69 1017.3
20260505002513 77 119 0.0 0.0 0.00 0.17 0.00 69 1017.4
20260505002012 77 137 0.0 0.0 0.00 0.17 0.00 69 1017.3
20260505001512 77 141 0.0 0.0 0.00 0.17 0.00 70 1017.3
20260505001011 77 122 0.0 0.0 0.00 0.17 0.00 69 1017.3
20260505000511 77 122 0.0 0.0 0.00 0.17 0.00 69 1017.4
20260505000015 77 166 0.0 0.0 0.00 0.17 0.00 69 1017.2
20260504235511 77 247 0.0 0.0 0.00 0.17 0.00 68 1017.0